Time,TemperatureF,DewpointF,PressureIn,WindDirection,WindDirectionDegrees,WindSpeedMPH,WindSpeedGustMPH,Humidity,HourlyPrecipIn,Conditions,Clouds,dailyrainin,SoftwareType,DateUTC
2013-08-27 00:04:00,74.2,69.0,29.98,SW,219,0.0,-999.0,84,-99.99,,,0.00,weatherlink.com 1.10,2013-08-27 04:04:00,
2013-08-27 00:19:00,73.9,69.0,29.97,SW,221,0.0,-999.0,84,-99.99,,,0.00,weatherlink.com 1.10,2013-08-27 04:19:00,
2013-08-27 00:34:00,73.5,69.0,29.97,SW,220,0.0,-999.0,85,-99.99,,,0.00,weatherlink.com 1.10,2013-08-27 04:34:00,
2013-08-27 00:49:00,73.4,69.0,29.97,SW,227,0.0,-999.0,85,-99.99,,,0.00,weatherlink.com 1.10,2013-08-27 04:49:00,
2013-08-27 01:04:00,72.9,69.0,29.97,SW,227,0.0,-999.0,86,-99.99,,,0.00,weatherlink.com 1.10,2013-08-27 05:04:00,
2013-08-27 01:20:00,72.6,69.0,29.96,SW,224,0.0,-999.0,87,-99.99,,,0.00,weatherlink.com 1.10,2013-08-27 05:20:00,
2013-08-27 01:35:00,72.7,69.0,29.96,WSW,247,0.0,-999.0,87,-99.99,,,0.00,weatherlink.com 1.10,2013-08-27 05:35:00,
2013-08-27 01:50:00,73.0,68.0,29.96,SW,234,0.0,-999.0,85,-99.99,,,0.00,weatherlink.com 1.10,2013-08-27 05:50:00,
2013-08-27 02:05:00,72.7,68.0,29.95,SW,225,0.0,-999.0,85,-99.99,,,0.00,weatherlink.com 1.10,2013-08-27 06:05:00,
2013-08-27 02:20:00,72.7,68.0,29.95,WSW,244,1.0,-999.0,86,-99.99,,,0.00,weatherlink.com 1.10,2013-08-27 06:20:00,
2013-08-27 02:35:00,73.1,68.0,29.95,WSW,241,0.0,-999.0,85,-99.99,,,0.00,weatherlink.com 1.10,2013-08-27 06:35:00,
2013-08-27 02:50:00,73.1,68.0,29.95,WSW,244,1.0,-999.0,85,-99.99,,,0.00,weatherlink.com 1.10,2013-08-27 06:50:00,
2013-08-27 03:05:00,72.9,69.0,29.95,WSW,248,0.0,-999.0,86,-99.99,,,0.00,weatherlink.com 1.10,2013-08-27 07:05:00,
2013-08-27 03:20:00,72.9,69.0,29.95,WSW,248,0.0,-999.0,86,-99.99,,,0.00,weatherlink.com 1.10,2013-08-27 07:20:00,
2013-08-27 03:35:00,73.0,69.0,29.94,WSW,249,0.0,-999.0,86,-99.99,,,0.00,weatherlink.com 1.10,2013-08-27 07:35:00,
2013-08-27 03:50:00,73.0,69.0,29.94,WSW,247,0.0,-999.0,86,-99.99,,,0.00,weatherlink.com 1.10,2013-08-27 07:50:00,
2013-08-27 04:05:00,72.8,69.0,29.93,WSW,247,0.0,-999.0,87,-99.99,,,0.00,weatherlink.com 1.10,2013-08-27 08:05:00,
2013-08-27 04:21:00,72.3,68.0,29.93,WSW,247,0.0,-999.0,87,-99.99,,,0.00,weatherlink.com 1.10,2013-08-27 08:21:00,
2013-08-27 04:36:00,71.9,69.0,29.93,WSW,246,0.0,-999.0,89,-99.99,,,0.00,weatherlink.com 1.10,2013-08-27 08:36:00,
2013-08-27 04:51:00,71.8,69.0,29.93,WSW,243,0.0,-999.0,89,-99.99,,,0.00,weatherlink.com 1.10,2013-08-27 08:51:00,
2013-08-27 05:06:00,71.7,68.0,29.92,WSW,243,0.0,-999.0,89,-99.99,,,0.00,weatherlink.com 1.10,2013-08-27 09:06:00,
2013-08-27 05:21:00,71.6,69.0,29.92,WSW,243,0.0,-999.0,90,-99.99,,,0.00,weatherlink.com 1.10,2013-08-27 09:21:00,
2013-08-27 05:36:00,71.4,68.0,29.93,WSW,242,0.0,-999.0,90,-99.99,,,0.00,weatherlink.com 1.10,2013-08-27 09:36:00,
2013-08-27 05:51:00,71.3,68.0,29.92,WSW,242,0.0,-999.0,90,-99.99,,,0.00,weatherlink.com 1.10,2013-08-27 09:51:00,
2013-08-27 06:06:00,71.2,69.0,29.92,WSW,242,0.0,-999.0,91,-99.99,,,0.00,weatherlink.com 1.10,2013-08-27 10:06:00,
2013-08-27 06:21:00,71.2,69.0,29.92,WSW,242,0.0,-999.0,91,-99.99,,,0.00,weatherlink.com 1.10,2013-08-27 10:21:00,
2013-08-27 06:36:00,71.3,69.0,29.92,WSW,242,0.0,-999.0,91,-99.99,,,0.00,weatherlink.com 1.10,2013-08-27 10:36:00,
2013-08-27 06:51:00,71.4,68.0,29.93,WSW,242,0.0,-999.0,90,-99.99,,,0.00,weatherlink.com 1.10,2013-08-27 10:51:00,
2013-08-27 07:06:00,71.2,69.0,29.93,WSW,243,0.0,-999.0,91,-99.99,,,0.00,weatherlink.com 1.10,2013-08-27 11:06:00,
2013-08-27 07:22:00,71.1,68.0,29.93,WSW,242,0.0,-999.0,91,-99.99,,,0.00,weatherlink.com 1.10,2013-08-27 11:22:00,
2013-08-27 07:37:00,71.2,69.0,29.95,WSW,242,0.0,-999.0,91,-99.99,,,0.00,weatherlink.com 1.10,2013-08-27 11:37:00,
2013-08-27 07:52:00,71.3,69.0,29.95,WSW,242,0.0,-999.0,91,-99.99,,,0.00,weatherlink.com 1.10,2013-08-27 11:52:00,
2013-08-27 08:07:00,71.3,69.0,29.95,WSW,242,0.0,-999.0,91,-99.99,,,0.00,weatherlink.com 1.10,2013-08-27 12:07:00,
2013-08-27 08:22:00,71.3,69.0,29.95,WSW,242,0.0,-999.0,91,-99.99,,,0.00,weatherlink.com 1.10,2013-08-27 12:22:00,
2013-08-27 08:37:00,71.7,69.0,29.95,WSW,242,0.0,-999.0,91,-99.99,,,0.00,weatherlink.com 1.10,2013-08-27 12:37:00,
2013-08-27 08:52:00,72.3,70.0,29.95,WSW,242,0.0,-999.0,91,-99.99,,,0.00,weatherlink.com 1.10,2013-08-27 12:52:00,
2013-08-27 09:07:00,73.0,70.0,29.94,WSW,242,0.0,-999.0,90,-99.99,,,0.00,weatherlink.com 1.10,2013-08-27 13:07:00,
2013-08-27 09:22:00,73.5,70.0,29.93,WSW,242,0.0,-999.0,89,-99.99,,,0.00,weatherlink.com 1.10,2013-08-27 13:22:00,
2013-08-27 09:37:00,74.0,71.0,29.93,SW,233,0.0,-999.0,89,-99.99,,,0.00,weatherlink.com 1.10,2013-08-27 13:37:00,
2013-08-27 09:52:00,74.5,71.0,29.93,SW,235,0.0,-999.0,88,-99.99,,,0.00,weatherlink.com 1.10,2013-08-27 13:52:00,
2013-08-27 10:07:00,75.3,71.0,29.94,NW,316,0.0,-999.0,87,-99.99,,,0.00,weatherlink.com 1.10,2013-08-27 14:07:00,
2013-08-27 10:22:00,76.6,72.0,29.93,NW,315,0.0,-999.0,85,-99.99,,,0.00,weatherlink.com 1.10,2013-08-27 14:22:00,
2013-08-27 10:38:00,78.5,73.0,29.93,NW,315,0.0,-999.0,82,-99.99,,,0.00,weatherlink.com 1.10,2013-08-27 14:38:00,
2013-08-27 10:53:00,79.8,73.0,29.94,West,260,0.0,-999.0,80,-99.99,,,0.00,weatherlink.com 1.10,2013-08-27 14:53:00,
2013-08-27 11:08:00,81.1,73.0,29.93,West,267,6.0,-999.0,77,-99.99,,,0.00,weatherlink.com 1.10,2013-08-27 15:08:00,
2013-08-27 11:23:00,82.2,74.0,29.94,West,265,0.0,-999.0,75,-99.99,,,0.00,weatherlink.com 1.10,2013-08-27 15:23:00,
2013-08-27 11:38:00,82.7,74.0,29.94,WNW,291,2.0,-999.0,74,-99.99,,,0.00,weatherlink.com 1.10,2013-08-27 15:38:00,
2013-08-27 11:53:00,83.5,74.0,29.93,WSW,248,1.0,-999.0,73,-99.99,,,0.00,weatherlink.com 1.10,2013-08-27 15:53:00,
2013-08-27 12:08:00,83.2,74.0,29.93,WSW,240,0.0,-999.0,73,-99.99,,,0.00,weatherlink.com 1.10,2013-08-27 16:08:00,
2013-08-27 12:23:00,83.1,74.0,29.93,WSW,247,0.0,-999.0,73,-99.99,,,0.00,weatherlink.com 1.10,2013-08-27 16:23:00,
2013-08-27 12:38:00,83.6,74.0,29.92,WSW,246,0.0,-999.0,73,-99.99,,,0.00,weatherlink.com 1.10,2013-08-27 16:38:00,
2013-08-27 12:54:00,84.7,76.0,29.92,WSW,244,0.0,-999.0,74,-99.99,,,0.00,weatherlink.com 1.10,2013-08-27 16:54:00,
2013-08-27 13:09:00,85.6,75.0,29.92,WSW,247,0.0,-999.0,70,-99.99,,,0.00,weatherlink.com 1.10,2013-08-27 17:09:00,
2013-08-27 13:24:00,85.8,75.0,29.92,SW,230,0.0,-999.0,71,-99.99,,,0.00,weatherlink.com 1.10,2013-08-27 17:24:00,
2013-08-27 13:39:00,86.8,76.0,29.91,SW,216,0.0,-999.0,69,-99.99,,,0.00,weatherlink.com 1.10,2013-08-27 17:39:00,
2013-08-27 13:54:00,86.8,75.0,29.90,SW,221,0.0,-999.0,68,-99.99,,,0.00,weatherlink.com 1.10,2013-08-27 17:54:00,
2013-08-27 14:09:00,87.9,76.0,29.90,SSW,200,0.0,-999.0,67,-99.99,,,0.00,weatherlink.com 1.10,2013-08-27 18:09:00,
2013-08-27 14:24:00,89.1,76.0,29.90,SW,230,0.0,-999.0,66,-99.99,,,0.00,weatherlink.com 1.10,2013-08-27 18:24:00,
2013-08-27 14:39:00,89.1,77.0,29.89,South,176,0.0,-999.0,67,-99.99,,,0.00,weatherlink.com 1.10,2013-08-27 18:39:00,
2013-08-27 14:54:00,90.4,77.0,29.89,SW,233,4.0,-999.0,64,-99.99,,,0.00,weatherlink.com 1.10,2013-08-27 18:54:00,
2013-08-27 15:09:00,89.7,76.0,29.88,SW,229,0.0,-999.0,64,-99.99,,,0.00,weatherlink.com 1.10,2013-08-27 19:09:00,
2013-08-27 15:25:00,91.5,77.0,29.88,South,190,0.0,-999.0,62,-99.99,,,0.00,weatherlink.com 1.10,2013-08-27 19:25:00,
2013-08-27 15:40:00,91.6,77.0,29.87,SW,220,0.0,-999.0,63,-99.99,,,0.00,weatherlink.com 1.10,2013-08-27 19:40:00,
2013-08-27 15:55:00,91.6,76.0,29.86,SSW,212,5.0,-999.0,60,-99.99,,,0.00,weatherlink.com 1.10,2013-08-27 19:55:00,
2013-08-27 16:10:00,92.0,77.0,29.86,SW,223,4.0,-999.0,61,-99.99,,,0.00,weatherlink.com 1.10,2013-08-27 20:10:00,
2013-08-27 16:25:00,91.6,77.0,29.85,SSW,212,0.0,-999.0,62,-99.99,,,0.00,weatherlink.com 1.10,2013-08-27 20:25:00,
2013-08-27 16:40:00,91.6,77.0,29.86,SW,231,8.0,-999.0,62,-99.99,,,0.00,weatherlink.com 1.10,2013-08-27 20:40:00,
2013-08-27 16:55:00,91.3,76.0,29.85,SW,221,1.0,-999.0,62,-99.99,,,0.00,weatherlink.com 1.10,2013-08-27 20:55:00,
2013-08-27 17:41:00,90.2,76.0,29.84,SSE,159,1.0,-999.0,64,-99.99,,,0.00,weatherlink.com 1.10,2013-08-27 21:41:00,
2013-08-27 17:56:00,90.6,75.0,29.84,SSW,204,0.0,-999.0,61,-99.99,,,0.00,weatherlink.com 1.10,2013-08-27 21:56:00,
2013-08-27 18:11:00,91.5,75.0,29.84,SSW,200,5.0,-999.0,58,-99.99,,,0.00,weatherlink.com 1.10,2013-08-27 22:11:00,
2013-08-27 18:26:00,91.3,73.0,29.84,SW,216,8.0,-999.0,56,-99.99,,,0.00,weatherlink.com 1.10,2013-08-27 22:26:00,
2013-08-27 18:41:00,90.9,73.0,29.84,SW,233,10.0,-999.0,56,-99.99,,,0.00,weatherlink.com 1.10,2013-08-27 22:41:00,
2013-08-27 18:56:00,90.0,73.0,29.84,WSW,247,5.0,-999.0,57,-99.99,,,0.00,weatherlink.com 1.10,2013-08-27 22:56:00,
2013-08-27 19:11:00,89.1,72.0,29.84,SW,218,5.0,-999.0,58,-99.99,,,0.00,weatherlink.com 1.10,2013-08-27 23:11:00,
2013-08-27 19:26:00,88.6,72.0,29.84,SW,234,7.0,-999.0,59,-99.99,,,0.00,weatherlink.com 1.10,2013-08-27 23:26:00,
2013-08-27 19:41:00,87.3,72.0,29.83,WSW,246,0.0,-999.0,61,-99.99,,,0.00,weatherlink.com 1.10,2013-08-27 23:41:00,
2013-08-27 19:56:00,86.1,73.0,29.83,SW,221,1.0,-999.0,64,-99.99,,,0.00,weatherlink.com 1.10,2013-08-27 23:56:00,
2013-08-27 20:11:00,84.9,73.0,29.83,SW,231,0.0,-999.0,67,-99.99,,,0.00,weatherlink.com 1.10,2013-08-28 00:11:00,
2013-08-27 20:26:00,83.6,73.0,29.83,SW,225,0.0,-999.0,70,-99.99,,,0.00,weatherlink.com 1.10,2013-08-28 00:26:00,
2013-08-27 20:41:00,82.9,73.0,29.83,SW,221,0.0,-999.0,71,-99.99,,,0.00,weatherlink.com 1.10,2013-08-28 00:41:00,
2013-08-27 20:56:00,82.4,73.0,29.83,SW,221,0.0,-999.0,72,-99.99,,,0.00,weatherlink.com 1.10,2013-08-28 00:56:00,
2013-08-27 21:12:00,81.9,72.0,29.83,SW,223,0.0,-999.0,73,-99.99,,,0.00,weatherlink.com 1.10,2013-08-28 01:12:00,
2013-08-27 21:27:00,81.6,72.0,29.83,SW,225,0.0,-999.0,73,-99.99,,,0.00,weatherlink.com 1.10,2013-08-28 01:27:00,
2013-08-27 21:42:00,81.2,72.0,29.83,SW,234,0.0,-999.0,73,-99.99,,,0.00,weatherlink.com 1.10,2013-08-28 01:42:00,
2013-08-27 21:57:00,81.1,72.0,29.84,SW,231,0.0,-999.0,73,-99.99,,,0.00,weatherlink.com 1.10,2013-08-28 01:57:00,
2013-08-27 22:12:00,81.1,72.0,29.83,SW,229,0.0,-999.0,73,-99.99,,,0.00,weatherlink.com 1.10,2013-08-28 02:12:00,
2013-08-27 22:27:00,80.7,72.0,29.83,SW,218,5.0,-999.0,74,-99.99,,,0.00,weatherlink.com 1.10,2013-08-28 02:27:00,
2013-08-27 22:42:00,80.2,71.0,29.82,WSW,244,0.0,-999.0,74,-99.99,,,0.00,weatherlink.com 1.10,2013-08-28 02:42:00,
2013-08-27 23:12:00,79.6,71.0,29.83,WSW,250,0.0,-999.0,76,-99.99,,,0.00,weatherlink.com 1.10,2013-08-28 03:12:00,
2013-08-27 23:27:00,79.4,72.0,29.82,WSW,244,0.0,-999.0,77,-99.99,,,0.00,weatherlink.com 1.10,2013-08-28 03:27:00,
2013-08-27 23:42:00,79.4,72.0,29.82,SW,232,8.0,-999.0,77,-99.99,,,0.00,weatherlink.com 1.10,2013-08-28 03:42:00,
2013-08-27 23:57:00,79.7,72.0,29.81,SW,223,15.0,-999.0,76,-99.99,,,0.00,weatherlink.com 1.10,2013-08-28 03:57:00,